Location: Newark
(35.5300°N, 14.3000°E)
Time: 02:05:20
(UTC+00:00)

Transit 4A - Pass Details

Date: 01 December 2019
Orbit: 871 x 973 km, 66.8° (Epoch: 23 January)

Event Time Altitude Azimuth Distance (km) Brightness Sun altitude
Exits shadow 02:03:57 13° 79° (E) 2,278 10.4 -46.1°
Drops below altitude 10° 02:05:06 10° 90° (E) 2,517 10.7 -45.8°
Sets 02:08:26 0° 109° (ESE) 3,451 11.5 -45.2°
